Terminal Aerodrome Forecast
Issued by NWS Spokane, WA

Home | Current Version | Previous Version | Text Only | Print | Product List | Glossary On
Versions: 1 2 3 4 5 6 7 8 9 10 11 12 13 14 15 16 17 18 19 20 21 22 23 24 25 26 27 28 29 30 31 32 33 34
000
FTUS46 KOTX 251720
TAFGEG
TAF
KGEG 251720Z 2518/2618 20008KT P6SM SCT060
     FM252000 24010G15KT P6SM FEW060
     FM260200 23006KT P6SM SKC=

USA.gov is the U.S. government's official web portal to all federal, state and local government web resources and services.